LRSB Weather Reports


time (UTC)temp
C
wind
direction
speed
KPH
gust
KPH
rain 1hr
cm
rain 24hr
cm
rain mn
cm
humidity
%
barometer
mb
20260506114811 26 130 14.5 0.0 0.00 0.00 0.00 23 1012.0
20260506113311 26 130 14.5 0.0 0.00 0.00 0.00 23 1012.0
20260506111811 26 20 11.3 0.0 0.00 0.00 0.00 28 1013.0
20260506110311 26 20 11.3 0.0 0.00 0.00 0.00 28 1013.0
20260506104811 25 110 11.3 0.0 0.00 0.00 0.00 28 1013.0
20260506103311 25 110 11.3 0.0 0.00 0.00 0.00 28 1013.0
20260506101811 25 110 11.3 0.0 0.00 0.00 0.00 30 1013.0
20260506100311 25 110 11.3 0.0 0.00 0.00 0.00 30 1013.0
20260506094811 25 4.8 0.0 0.00 0.00 0.00 30 1014.0
20260506093311 25 4.8 0.0 0.00 0.00 0.00 30 1014.0
20260506091811 23 4.8 0.0 0.00 0.00 0.00 31 1014.0
20260506090311 23 4.8 0.0 0.00 0.00 0.00 29 1014.0
20260506084811 22 30 4.8 0.0 0.00 0.00 0.00 31 1014.0
20260506083311 22 30 4.8 0.0 0.00 0.00 0.00 31 1014.0
20260506081807 22 50 4.8 0.0 0.00 0.00 0.00 38 1014.0
20260506080311 22 50 4.8 0.0 0.00 0.00 0.00 38 1014.0
20260506073311 21 100 9.7 0.0 0.00 0.00 0.00 40 1014.0
20260506071811 18 100 9.7 0.0 0.00 0.00 0.00 46 1014.0
20260506070311 18 100 9.7 0.0 0.00 0.00 0.00 46 1014.0
20260506061811 17 3.2 0.0 0.00 0.00 0.00 49 1014.0
20260506060312 17 3.2 0.0 0.00 0.00 0.00 49 1014.0
20260506050325 11 150 8.0 0.0 0.00 0.00 0.00 77 1014.0
20260506044826 12 40 4.8 0.0 0.00 0.00 0.00 67 1014.0
20260506043315 12 40 4.8 0.0 0.00 0.00 0.00 67 1014.0
20260506041812 10 100 4.8 0.0 0.00 0.00 0.00 76 1014.0
20260506040311 10 100 4.8 0.0 0.00 0.00 0.00 76 1014.0
20260506034811 7 1.6 0.0 0.00 0.00 0.00 76 1014.0
20260506033311 7 1.6 0.0 0.00 0.00 0.00 76 1014.0
20260506031811 7 3.2 0.0 0.00 0.00 0.00 76 1013.0
20260506030310 7 3.2 0.0 0.00 0.00 0.00 76 1013.0
20260506024811 7 40 4.8 0.0 0.00 0.00 0.00 76 1013.0
20260506023311 7 40 4.8 0.0 0.00 0.00 0.00 76 1013.0
20260506021811 7 3.2 0.0 0.00 0.00 0.00 76 1013.0
20260506020311 7 3.2 0.0 0.00 0.00 0.00 76 1013.0
20260506014810 7 3.2 0.0 0.00 0.00 0.00 76 1013.0
20260506013311 7 3.2 0.0 0.00 0.00 0.00 76 1013.0
20260506011811 7 3.2 0.0 0.00 0.00 0.00 71 1013.0
20260506010311 7 3.2 0.0 0.00 0.00 0.00 71 1013.0
20260506004811 7 3.2 0.0 0.00 0.00 0.00 76 1013.0
20260506003426 7 3.2 0.0 0.00 0.00 0.00 76 1013.0
20260506001811 10 3.2 0.0 0.00 0.00 0.00 67 1013.0
20260506000312 10 3.2 0.0 0.00 0.00 0.00 67 1013.0
20260505234811 7 270 4.8 0.0 0.00 0.00 0.00 82 1013.0
20260505233310 7 270 4.8 0.0 0.00 0.00 0.00 82 1013.0
20260505231811 8 3.2 0.0 0.00 0.00 0.00 82 1013.0
20260505230311 8 3.2 0.0 0.00 0.00 0.00 82 1013.0
20260505224811 8 3.2 0.0 0.00 0.00 0.00 71 1013.0
20260505223311 8 3.2 0.0 0.00 0.00 0.00 71 1013.0
20260505221808 11 1.6 0.0 0.00 0.00 0.00 62 1013.0
20260505220311 11 1.6 0.0 0.00 0.00 0.00 62 1013.0
20260505214812 10 3.2 0.0 0.00 0.00 0.00 71 1013.0
20260505213311 10 3.2 0.0 0.00 0.00 0.00 71 1013.0
20260505211811 13 1.6 0.0 0.00 0.00 0.00 48 1013.0
20260505210311 13 1.6 0.0 0.00 0.00 0.00 48 1013.0
20260505204813 13 40 4.8 0.0 0.00 0.00 0.00 55 1013.0
20260505203310 13 40 4.8 0.0 0.00 0.00 0.00 55 1013.0
20260505201842 13 3.2 0.0 0.00 0.00 0.00 55 1013.0
20260505200311 13 3.2 0.0 0.00 0.00 0.00 55 1013.0
20260505194811 13 120 4.8 0.0 0.00 0.00 0.00 55 1013.0
20260505193311 13 120 4.8 0.0 0.00 0.00 0.00 55 1013.0
20260505191811 15 250 9.7 0.0 0.00 0.00 0.00 51 1013.0
20260505190310 15 250 9.7 0.0 0.00 0.00 0.00 51 1013.0
20260505184811 16 250 11.3 0.0 0.00 0.00 0.00 48 1013.0
20260505183311 16 250 11.3 0.0 0.00 0.00 0.00 48 1013.0
20260505181811 13 260 11.3 0.0 0.00 0.00 0.00 59 1012.0
20260505180311 13 260 11.3 0.0 0.00 0.00 0.00 59 1012.0
20260505174808 21 260 4.8 0.0 0.00 0.00 0.00 33 1012.0
20260505173311 21 260 4.8 0.0 0.00 0.00 0.00 33 1012.0
20260505171811 23 360 8.0 0.0 0.00 0.00 0.00 29 1012.0
20260505170311 23 360 8.0 0.0 0.00 0.00 0.00 29 1012.0
20260505164811 25 350 8.0 0.0 0.00 0.00 0.00 19 1012.0
20260505163311 25 350 8.0 0.0 0.00 0.00 0.00 19 1012.0
20260505161811 25 3.2 0.0 0.00 0.00 0.00 19 1012.0
20260505160311 25 3.2 0.0 0.00 0.00 0.00 19 1012.0
20260505153311 26 4.8 0.0 0.00 0.00 0.00 20 1012.0
20260505151819 26 70 9.7 0.0 0.00 0.00 0.00 18 1012.0
20260505150311 26 70 9.7 0.0 0.00 0.00 0.00 18 1012.0
20260505140311 26 30 11.3 0.0 0.00 0.00 0.00 20 1013.0
20260505130311 26 9.7 0.0 0.00 0.00 0.00 21 1013.0
20260505124811 26 90 11.3 0.0 0.00 0.00 0.00 21 1014.0
20260505123311 26 90 11.3 0.0 0.00 0.00 0.00 21 1014.0
20260505121811 26 4.8 0.0 0.00 0.00 0.00 23 1014.0
20260505120316 25 30 9.7 0.0 0.00 0.00 0.00 21 1014.0